Погода в Березнике

Россия / Архангельская область     61°11′39″N   41°51′58″E
темп.,
°C
ветер,
м/с
пор.,
м/с
влажн.,
%
обл.,
%
осадки,
мм/ч
давл.,
гПа
погр.,
м
5 августа, чт
чт500:00+9зюз29740 0.0 1014174
03:00+8з26774 0.0 1016111
06:00+10з25735 0.0 1017128
09:00+17з23526 0.0 1017638
12:00+20з343685 0.0 10172500
15:00+18с2347100 0.0 1018687
18:00+17юв0157100 0.0 101833
21:00+14юв0160100 0.0 101811
6 августа, пт
пт600:00+13в1163100 0.0 101811
03:00+11всв1170100 0.0 101821
06:00+12св2573100 0.0 1019144
09:00+15всв2563100 0.0 1018419
12:00+16всв3667100 0.3 1018746
15:00+12св3994100 2.6 1019387
18:00+11св41095100 1.1 1019415
21:00+11всв41196100 2.7 1019384
7 августа, сб
сб700:00+11всв4129358 0.0 1019411
03:00+11всв31192100 0.0 1019399
06:00+12всв3108669 0.0 1020469
09:00+15в4865100 0.0 1020647
12:00+19в4753100 0.0 10191249
15:00+19вюв4753100 0.0 10191242
18:00+18в3860100 0.0 1018828
21:00+16в41167100 0.0 1018530
8 августа, вс
вс800:00+13в41393100 1.2 1018550
03:00+12в51396100 2.6 1017590
06:00+12в61499100 8.8 1016743
09:00+12в51298100 11.6 1016667
12:00+13в41097100 0.0 1016655
15:00+14всв41098100 0.3 1016494
18:00+14в41099100 4.9 1015383
21:00+14в3999100 10.6 1015333
9 августа, пн
пн900:00+13всв2799100 3.5 1014276
03:00+14в2410097 3.7 1014145
06:00+14св1199100 0.0 1015107
09:00+16ссз019695 0.1 1015260
12:00+17сз239291 0.3 1016456
15:00+18ссз238284 0.3 1017631
18:00+16с238648 0.1 1018353
21:00+12с249848 0.1 1019104